Regional Weather Roundup
Issued by NWS

Home | Current Version | Previous Version | Text Only | Print | Product List | Glossary On
Versions: 1 2 3 4 5 6 7 8 9 10 11 12 13 14 15 16 17 18 19 20 21 22 23 24 25 26 27 28 29 30 31 32 33 34 35 36 37 38 39 40 41 42 43 44 45 46 47 48 49 50
000
ASUS44 KJAN 120210
RWRMS

MISSISSIPPI HOURLY WEATHER ROUNDUP
NATIONAL WEATHER SERVICE JACKSON MS
800 PM CST THU FEB 11 2016

NOTE: "FAIR: INDICATES FEW OR NO CLOUDS BELOW 12,000 FEET WITH NO
SIGNIFICANT WEATHER AND/OR OBSTRUCTIONS TO VISIBILITY.

MSZ001>002-007>008-010>013-018>021-025>028-034>036-120300-
NORTHWEST MISSISSIPPI

CITY           SKY/WX    TMP DP  RH WIND       PRES   REMARKS
CLEVELAND      FAIR      46  32  59 N12       30.18S
GREENWOOD      CLEAR     47  37  68 N6        30.16R
GREENVILLE     CLEAR     48  33  56 N9        30.16R
OLIVE BRANCH   MOCLDY    39  27  60 NE7       30.22S WCI  34
OXFORD         FAIR      45  25  45 NE6       30.21R
TUNICA         PTCLDY    41  28  60 N9        30.23R
$$

MSZ003>006-009-014>017-022>024-029>033-037>039-120300-
NORTHEAST MISSISSIPPI

CITY           SKY/WX    TMP DP  RH WIND       PRES   REMARKS
COLUMBUS AFB   CLEAR     46  36  68 N1        30.16R
CORINTH        FAIR      43  25  49 N8        30.21F
GOLDN TRIANGLE CLEAR     46  30  53 N9        30.16R
STARKVILLE     FAIR      48  36  61 CALM      30.17R
TUPELO         CLEAR     44  24  45 N9        30.19R
$$

MSZ040-058-120300-
CENTRAL MISSISSIPPI

CITY           SKY/WX    TMP DP  RH WIND       PRES   REMARKS
JACKSON INTL   CLEAR     54  41  61 N3        30.12R
JACKSON HAWKNS CLEAR     59  40  49 CALM      30.13R
MERIDIAN KEY   CLEAR     50  42  74 N3        30.13R
MERIDIAN NAS   CLEAR     54  41  61 N5        30.14R
VICKSBURG      CLEAR     58  44  60 N8        30.13R
$$

MSZ059>079-120300-
SOUTH MISSISSIPPI

CITY           SKY/WX    TMP DP  RH WIND       PRES   REMARKS
BROOKHAVEN     FAIR      75  61  60 S7        30.14S
HATTIESBURG    CLEAR     62  47  57 SW5       30.14R
MCCOMB         CLEAR     64  50  60 SW8       30.15R
NATCHEZ        CLEAR     66  48  52 S6        30.13S
PINE BELT      PTCLDY    63  45  51 SW5       30.14S
$$

MSZ080>082-120300-
COASTAL MISSISSIPPI

CITY           SKY/WX    TMP DP  RH WIND       PRES   REMARKS
BILOXI         CLEAR     58  57  95 SW12      30.18R
PASCAGOULA     CLEAR     59  56  89 SW5       30.19R
GULFPORT       CLEAR     64  54  69 VRB3      30.18R
$$



USA.gov is the U.S. government's official web portal to all federal, state and local government web resources and services.